Погода в Славинске

Россия / Калининградская область     54°45′04″N   21°04′53″E
темп.,
°C
ветер,
м/с
пор.,
м/с
влажн.,
%
обл.,
%
осадки,
мм/ч
давл.,
гПа
погр.,
м
13 апреля, вт
вт1323:00+3сз5991100 0.2 1022660
02:00+4зсз4884100 0.2 1022428
05:00+4сз41080100 0.0 1023496
08:00+4сз4878100 0.1 1024472
11:00+6сз565495 0.0 1024962
14:00+7ссз5648100 0.0 10251183
17:00+6сз5654100 0.0 1024848
20:00+3сз2682100 0.0 1024250
14 апреля, ср
ср1423:00+2зсз2590100 0.0 1024171
02:00+2зсз2493100 0.0 1023102
05:00+2зсз2392100 0.0 102290
08:00+4ссз2381100 0.0 1022356
11:00+6с4464100 0.0 1022808
14:00+7с5659100 0.0 1022924
17:00+6ссз6969100 0.0 1022574
20:00+4с61179100 0.0 1022432
15 апреля, чт
чт1523:00+5с5978100 0.1 1022439
02:00+4ссв51075100 0.1 1022670
05:00+3ссв61289100 0.2 1022684
08:00+4ссв61381100 0.6 1022857
11:00+5ссв61176100 0.1 1021846
14:00+7ссв41076100 0.1 1021918
17:00+8св61164100 0.0 10211052
20:00+5ссв51084100 0.2 1022818
16 апреля, пт
пт1623:00+5св4982100 0.4 1021735
02:00+4ссв51094100 1.0 1020761
05:00+4ссв51086100 0.2 1020516
08:00+4ссв41087100 0.9 1021548
11:00+5ссв4985100 0.1 1022522
14:00+8св5879100 0.1 1022684
17:00+7св51085100 0.1 1022618
20:00+6св41188100 0.3 1023521
17 апреля, сб
сб1723:00+7св51289100 0.2 1024540
02:00+7св51291100 0.4 1023587
05:00+7св5108947 0.0 1024426
08:00+7всв5118361 0.0 1025418
11:00+8всв51182100 0.0 1025577
14:00+12в5874100 0.0 1025959
17:00+12в4107781 0.1 1026970
20:00+10всв3784100 0.1 1026211